Voltar ao catálogo

CZ-6A DEB

AtivoPO
NORAD 60847·DEBRIS·🇨🇳 China

Lançado Aug 6, 2024 de Taiyuan Satellite Launch Center

Loading…

Próximas Passagens (próximas 24 horas)

TLE

AtualizadoSource: Space-Track

Época: Sep 14, 2026, 10:23 UTC

1 60847U 24140JA  26257.43276830  .00002476  00000-0  83781-3 0  9990
2 60847  88.9616 259.3663 0020924 273.5130  86.3676 14.36467518109097

Acompanhe CZ-6A DEB em tempo real com AllMySat

Download on the App Store